Change the Weather History Date:

Wednesday, January 1, 2014

  Actual Average (KHUF) Record (KHUF)
Temperature  
Mean Temperature 30 °F 28 °F  
Max Temperature 40 °F 36 °F 63 °F (1966)
Min Temperature 19 °F 21 °F -13 °F (1968)
Degree Days  
Heating Degree Days 36 37  
Month to date heating degree days 37  
Since 1 July heating degree days 2148  
Cooling Degree Days 0 0  
Month to date cooling degree days 0  
Year to date cooling degree days 0  
Moisture  
Dew Point 26 °F    
Average Humidity 85    
Maximum Humidity 96    
Minimum Humidity 69    
Precipitation  
Precipitation 0.02 in 0.10 in 1.58 in (1966)
Month to date precipitation 0.10  
Year to date precipitation 0.10  
Sea Level Pressure  
Sea Level Pressure 30.12 in    
Wind  
Wind Speed 3 mph (ENE)    
Max Wind Speed 10 mph    
Max Gust Speed -    
Visibility 9 miles    
Events Snow    
T = Trace of Precipitation, MM = Missing Value Source: NWS Daily Summary

Daily Weather History Graph

Daily Weather History Graph

Search for Another Location

Airport or City:

Trip Planner

Search our weather history database for the weather conditions in past years. The results will help you decide how hot, cold, wet, or windy it might be!

Date:

Astronomy

Jan. 01, 2014 Rise Set
Actual Time 7:11 AM CST 4:37 PM CST
Civil Twilight 6:41 AM CST 5:07 PM CST
Nautical Twilight 6:07 AM CST 5:41 PM CST
Astronomical Twilight 5:34 AM CST 6:13 PM CST
Moon 7:01 AM CST (1/1) 5:21 PM CST (1/1)
Length of Visible Light 10h 25m
Length of Day
9h 25m
New Moon, 0% of the Moon is Illuminated
Jan 1
New Moon
Jan 7
First Quarter
Jan 15
Full
Jan 23
Last Quarter
Jan 30
New

Hourly Weather History & Observations

Time (CST) Temp. Windchill Dew Point Humidity Pressure Visibility Wind Dir Wind Speed Gust Speed Precip Events Conditions
12:15 AM 23.9 °F 19.5 °F 21.2 °F 89% 30.21 in 10.0 mi SE 3.5 mph - N/A   Clear
12:35 AM 27.1 °F 21.8 °F 22.5 °F 83% 30.21 in 10.0 mi ESE 4.6 mph - N/A   Clear
12:55 AM 26.8 °F 22.8 °F 22.5 °F 84% 30.21 in 10.0 mi ESE 3.5 mph - N/A   Clear
1:15 AM 25.9 °F - 21.7 °F 84% 30.21 in 10.0 mi Calm Calm - N/A   Clear
1:35 AM 23.9 °F - 20.5 °F 87% 30.21 in 10.0 mi Calm Calm - N/A   Clear
1:55 AM 22.3 °F - 19.6 °F 89% 30.21 in 10.0 mi Calm Calm - N/A   Clear
2:15 AM 21.7 °F - 19.0 °F 89% 30.21 in 10.0 mi Calm Calm - N/A   Clear
2:35 AM 22.1 °F - 19.8 °F 91% 30.20 in 10.0 mi Calm Calm - N/A   Clear
2:55 AM 22.6 °F - 20.3 °F 91% 30.20 in 10.0 mi Calm Calm - N/A   Clear
3:15 AM 20.7 °F - 18.5 °F 91% 30.19 in 10.0 mi Calm Calm - N/A   Clear
3:35 AM 21.7 °F - 19.6 °F 91% 30.18 in 10.0 mi Calm Calm - N/A   Clear
3:55 AM 22.1 °F 17.4 °F 19.9 °F 91% 30.18 in 10.0 mi East 3.5 mph - N/A   Clear
4:15 AM 21.4 °F 16.6 °F 19.2 °F 91% 30.18 in 10.0 mi ENE 3.5 mph - N/A   Clear
4:35 AM 21.9 °F 17.2 °F 20.3 °F 93% 30.18 in 10.0 mi East 3.5 mph - N/A   Clear
4:55 AM 21.9 °F 17.2 °F 20.1 °F 93% 30.18 in 10.0 mi East 3.5 mph - N/A   Clear
5:15 AM 21.9 °F - 20.3 °F 93% 30.17 in 10.0 mi Calm Calm - N/A   Clear
5:35 AM 21.0 °F - 19.0 °F 92% 30.17 in 10.0 mi Calm Calm - N/A   Clear
5:55 AM 20.3 °F - 18.9 °F 94% 30.17 in 10.0 mi Calm Calm - N/A   Clear
6:15 AM 20.8 °F 16.0 °F 19.4 °F 94% 30.17 in 10.0 mi ENE 3.5 mph - N/A   Clear
6:35 AM 20.5 °F - 18.9 °F 93% 30.17 in 10.0 mi Calm Calm - N/A   Clear
6:55 AM 19.2 °F - 17.4 °F 93% 30.17 in 10.0 mi Calm Calm - N/A   Clear
7:15 AM 20.5 °F 15.6 °F 19.0 °F 94% 30.15 in 10.0 mi East 3.5 mph - N/A   Clear
7:35 AM 22.6 °F 16.5 °F 21.6 °F 96% 30.16 in 7.0 mi ESE 4.6 mph - N/A   Clear
7:55 AM 26.2 °F 20.7 °F 24.8 °F 94% 30.16 in 10.0 mi SE 4.6 mph - N/A   Clear
8:15 AM 29.1 °F 25.4 °F 26.8 °F 91% 30.17 in 10.0 mi SE 3.5 mph - N/A   Clear
8:35 AM 31.5 °F 26.8 °F 28.4 °F 88% 30.18 in 10.0 mi SSE 4.6 mph - N/A   Clear
8:55 AM 32.7 °F 28.3 °F 29.8 °F 89% 30.17 in 10.0 mi South 4.6 mph - N/A   Clear
9:15 AM 33.8 °F 27.7 °F 29.8 °F 85% 30.17 in 10.0 mi SSW 6.9 mph - N/A   Clear
9:35 AM 34.0 °F 28.8 °F 29.7 °F 84% 30.17 in 10.0 mi SW 5.8 mph - N/A   Clear
9:55 AM 34.7 °F 29.6 °F 30.0 °F 83% 30.17 in 10.0 mi SSW 5.8 mph - N/A   Clear
10:15 AM 35.4 °F 30.5 °F 30.6 °F 82% 30.17 in 10.0 mi SW 5.8 mph - N/A   Clear
10:35 AM 36.3 °F 30.8 °F 30.6 °F 80% 30.16 in 10.0 mi SSW 6.9 mph - N/A   Clear
10:55 AM 36.7 °F 31.2 °F 30.7 °F 79% 30.15 in 10.0 mi SW 6.9 mph - N/A   Mostly Cloudy
11:15 AM 36.9 °F 30.7 °F 30.7 °F 79% 30.15 in 10.0 mi SW 8.1 mph - N/A   Overcast
11:35 AM 37.4 °F 32.1 °F 31.1 °F 78% 30.14 in 10.0 mi SSW 6.9 mph - N/A   Mostly Cloudy
11:55 AM 37.8 °F 34.2 °F 31.1 °F 77% 30.12 in 10.0 mi SW 4.6 mph - N/A   Scattered Clouds
12:15 PM 38.3 °F 34.8 °F 31.1 °F 75% 30.12 in 10.0 mi SW 4.6 mph - N/A   Clear
12:35 PM 38.7 °F 36.3 °F 31.1 °F 74% 30.11 in 10.0 mi SW 3.5 mph - N/A   Clear
12:55 PM 39.9 °F 36.7 °F 31.3 °F 71% 30.10 in 10.0 mi SW 4.6 mph - N/A   Clear
1:15 PM 40.5 °F - 31.6 °F 71% 30.10 in 10.0 mi Calm Calm - N/A   Clear
1:35 PM 40.3 °F 38.2 °F 31.3 °F 70% 30.09 in 10.0 mi WSW 3.5 mph - N/A   Scattered Clouds
1:55 PM 40.1 °F - 30.9 °F 70% 30.09 in 10.0 mi Calm Calm - N/A   Mostly Cloudy
2:15 PM 40.5 °F - 30.9 °F 69% 30.09 in 10.0 mi Calm Calm - N/A   Scattered Clouds
2:35 PM 40.3 °F - 30.9 °F 69% 30.09 in 10.0 mi Calm Calm - N/A   Mostly Cloudy
2:55 PM 40.1 °F - 31.1 °F 70% 30.08 in 10.0 mi Calm Calm - N/A   Mostly Cloudy
3:15 PM 39.6 °F - 31.1 °F 72% 30.08 in 10.0 mi Calm Calm - N/A   Mostly Cloudy
3:35 PM 38.7 °F - 30.9 °F 74% 30.07 in 10.0 mi Calm Calm - N/A   Mostly Cloudy
3:55 PM 38.1 °F 34.6 °F 30.6 °F 74% 30.07 in 10.0 mi NNE 4.6 mph - N/A   Overcast
4:15 PM 36.7 °F 32.9 °F 30.7 °F 79% 30.07 in 10.0 mi NNE 4.6 mph - N/A   Overcast
4:35 PM 35.1 °F 31.0 °F 30.2 °F 82% 30.07 in 10.0 mi NE 4.6 mph - N/A   Overcast
4:55 PM 34.5 °F 30.4 °F 30.2 °F 84% 30.07 in 10.0 mi NE 4.6 mph - N/A   Overcast
5:15 PM 34.0 °F 29.8 °F 30.0 °F 85% 30.07 in 10.0 mi NE 4.6 mph - N/A   Overcast
5:35 PM 33.8 °F 30.8 °F 30.0 °F 86% 30.07 in 10.0 mi NNE 3.5 mph - N/A   Overcast
5:55 PM 33.1 °F - 29.7 °F 87% 30.07 in 10.0 mi Calm Calm - N/A   Overcast
6:15 PM 32.9 °F - 29.3 °F 87% 30.08 in 10.0 mi Calm Calm - N/A   Overcast
6:35 PM 32.2 °F 25.8 °F 28.9 °F 88% 30.08 in 10.0 mi NNE 6.9 mph - N/A   Overcast
6:55 PM 32.0 °F 25.6 °F 28.2 °F 86% 30.07 in 10.0 mi NNE 6.9 mph - N/A   Overcast
7:15 PM 31.8 °F 24.6 °F 28.2 °F 87% 30.07 in 10.0 mi NE 8.1 mph - N/A   Overcast
7:35 PM 31.6 °F 25.1 °F 28.0 °F 87% 30.07 in 10.0 mi NE 6.9 mph - N/A   Overcast
7:55 PM 31.6 °F 24.4 °F 28.0 °F 87% 30.06 in 10.0 mi NE 8.1 mph - N/A   Overcast
8:15 PM 31.1 °F 23.1 °F 27.5 °F 87% 30.05 in 10.0 mi NNE 9.2 mph - N/A   Overcast
8:35 PM 30.9 °F 22.2 °F 27.5 °F 87% 30.05 in 10.0 mi NNE 10.4 mph - N/A   Overcast
8:55 PM 30.7 °F 22.6 °F 27.5 °F 88% 30.05 in 7.0 mi NNE 9.2 mph - N/A Snow Light Snow
9:15 PM 30.2 °F 21.3 °F 27.3 °F 89% 30.04 in 3.0 mi NNE 10.4 mph - N/A Snow Light Snow
9:35 PM 29.3 °F 20.2 °F 27.3 °F 92% 30.04 in 2.5 mi NNE 10.4 mph - N/A Snow Light Snow
9:50 PM 28.9 °F 21.9 °F 27.0 °F 92% 30.05 in 2.5 mi NNE 6.9 mph - N/A Snow Light Snow
10:15 PM 28.2 °F 18.9 °F 26.4 °F 93% 30.05 in 1.5 mi North 10.4 mph - N/A Snow Light Snow
10:35 PM 27.5 °F 18.6 °F 25.9 °F 94% 30.05 in 1.0 mi NNE 9.2 mph - N/A Snow Light Snow
10:55 PM 27.0 °F 17.3 °F 25.5 °F 94% 30.04 in 1.0 mi NNE 10.4 mph - 0.01 in Snow Snow
11:15 PM 26.6 °F 18.2 °F 25.2 °F 94% 30.04 in 1.0 mi NNE 8.1 mph - 0.01 in Snow Snow
11:35 PM 26.1 °F 18.4 °F 24.6 °F 94% 30.04 in 1.2 mi NNE 6.9 mph - 0.01 in Snow Light Snow
11:55 PM 25.7 °F 17.1 °F 23.9 °F 93% 30.03 in 1.0 mi NNE 8.1 mph - 0.01 in Snow Light Snow